TimeCDT,TemperatureF,Dew PointF,Humidity,Sea Level PressureIn,VisibilityMPH,Wind Direction,Wind SpeedMPH,Gust SpeedMPH,PrecipitationIn,Events,Conditions,WindDirDegrees,DateUTC
12:53 AM,60.1,57.0,90,29.51,10.0,SE,9.2,-,0.00,,Overcast,130,2012-04-15 05:53:00
1:53 AM,61.0,57.9,90,29.47,10.0,SE,10.4,-,N/A,,Mostly Cloudy,140,2012-04-15 06:53:00
2:50 AM,62.6,59.0,88,29.46,10.0,SE,5.8,-,N/A,,Overcast,130,2012-04-15 07:50:00
2:53 AM,63.0,59.0,87,29.44,10.0,ESE,5.8,-,N/A,,Overcast,120,2012-04-15 07:53:00
3:33 AM,62.6,59.0,88,29.47,10.0,ESE,11.5,-,N/A,,Mostly Cloudy,120,2012-04-15 08:33:00
3:53 AM,62.1,59.0,90,29.48,10.0,SE,6.9,-,N/A,,Scattered Clouds,130,2012-04-15 08:53:00
4:53 AM,62.1,60.1,93,29.50,8.0,SSW,8.1,-,0.06,Rain,Light Rain,200,2012-04-15 09:53:00
5:53 AM,63.0,60.1,90,29.48,10.0,WSW,8.1,17.3,0.05,Rain,Light Rain,240,2012-04-15 10:53:00
6:53 AM,63.0,59.0,87,29.47,10.0,SSE,9.2,-,0.03,,Mostly Cloudy,160,2012-04-15 11:53:00
7:53 AM,62.1,59.0,90,29.47,10.0,South,16.1,21.9,N/A,,Clear,170,2012-04-15 12:53:00
8:53 AM,63.0,59.0,87,29.45,10.0,SSE,20.7,27.6,N/A,,Scattered Clouds,160,2012-04-15 13:53:00
9:53 AM,64.9,60.1,84,29.43,10.0,SSE,23.0,32.2,N/A,,Clear,150,2012-04-15 14:53:00
10:53 AM,68.0,62.1,81,29.41,10.0,SSE,24.2,33.4,N/A,,Clear,160,2012-04-15 15:53:00
11:53 AM,73.0,63.0,71,29.39,10.0,South,24.2,35.7,N/A,,Mostly Cloudy,180,2012-04-15 16:53:00
12:53 PM,73.0,61.0,66,29.37,10.0,South,29.9,43.7,N/A,,Scattered Clouds,180,2012-04-15 17:53:00
1:53 PM,73.0,59.0,61,29.36,10.0,South,25.3,38.0,N/A,,Clear,180,2012-04-15 18:53:00
2:53 PM,75.0,57.0,53,29.32,10.0,South,23.0,33.4,N/A,,Clear,170,2012-04-15 19:53:00
3:53 PM,73.9,60.1,62,29.29,10.0,SSE,24.2,39.1,N/A,,Clear,160,2012-04-15 20:53:00
4:53 PM,73.9,55.9,53,29.29,10.0,South,28.8,40.3,N/A,,Clear,170,2012-04-15 21:53:00
5:53 PM,71.1,53.1,53,29.28,10.0,South,26.5,38.0,N/A,,Mostly Cloudy,180,2012-04-15 22:53:00
6:53 PM,69.1,51.1,53,29.29,10.0,South,31.1,41.4,N/A,,Scattered Clouds,190,2012-04-15 23:53:00
7:53 PM,63.0,42.1,46,29.32,10.0,SW,27.6,39.1,N/A,,Mostly Cloudy,220,2012-04-16 00:53:00
8:53 PM,61.0,42.1,50,29.34,10.0,SSW,15.0,25.3,N/A,,Mostly Cloudy,200,2012-04-16 01:53:00
9:53 PM,59.0,46.0,62,29.36,10.0,SW,20.7,29.9,N/A,,Scattered Clouds,220,2012-04-16 02:53:00
10:53 PM,55.9,46.0,69,29.35,10.0,SSW,18.4,29.9,N/A,,Clear,210,2012-04-16 03:53:00
11:53 PM,55.0,46.9,74,29.35,10.0,SW,28.8,34.5,N/A,,Mostly Cloudy,230,2012-04-16 04:53:00